FW0960 Weather Reports


time (UTC)temp
C
wind
direction
speed
KPH
gust
KPH
rain 1hr
cm
rain 24hr
cm
rain mn
cm
humidity
%
barometer
mb
20260506095522 16 235 0.0 0.0 0.00 0.00 0.00 85 1012.9
20260506095019 16 235 0.0 0.0 0.00 0.00 0.00 85 1013.0
20260506094518 16 235 0.0 0.0 0.00 0.00 0.00 85 1013.0
20260506094013 16 235 0.0 0.0 0.00 0.00 0.00 85 1013.1
20260506093514 16 235 0.0 0.0 0.00 0.00 0.00 85 1013.0
20260506093017 16 235 0.0 0.0 0.00 0.00 0.00 85 1012.9
20260506092515 16 235 0.0 0.0 0.00 0.00 0.00 85 1013.0
20260506091515 16 235 0.0 0.0 0.00 0.00 0.00 85 1012.9
20260506091015 16 232 0.0 0.0 0.00 0.00 0.00 85 1012.9
20260506090515 17 232 0.0 0.0 0.00 0.00 0.00 85 1013.0
20260506090009 17 232 0.0 0.0 0.00 0.00 0.00 84 1012.9
20260506085508 17 232 0.0 3.2 0.00 0.00 0.00 84 1012.9
20260506085009 17 232 0.0 3.2 0.00 0.00 0.00 84 1013.2
20260506084512 17 238 0.0 3.2 0.00 0.00 0.00 84 1013.2
20260506084009 17 238 0.0 3.2 0.00 0.00 0.00 84 1013.1
20260506083511 17 236 0.0 1.6 0.00 0.00 0.00 84 1013.1
20260506083010 17 224 0.0 3.2 0.00 0.00 0.00 84 1013.1
20260506082509 17 224 0.0 3.2 0.00 0.00 0.00 84 1013.3
20260506081504 17 175 0.0 3.2 0.00 0.00 0.00 84 1013.2
20260506080505 17 189 0.0 3.2 0.00 0.00 0.00 84 1013.3
20260506073505 17 164 0.0 8.0 0.00 0.00 0.00 84 1013.2
20260506073011 17 163 0.0 8.0 0.00 0.00 0.00 84 1013.2
20260506072505 17 221 0.0 3.2 0.00 0.00 0.00 84 1013.1
20260506072008 17 215 0.0 3.2 0.00 0.00 0.00 84 1013.1
20260506071504 17 205 0.0 3.2 0.00 0.00 0.00 84 1013.2
20260506071002 17 205 0.0 3.2 0.00 0.00 0.00 84 1013.3
20260506070504 17 241 0.0 3.2 0.00 0.00 0.00 84 1013.3
20260506062454 17 229 0.0 1.6 0.00 0.00 0.00 82 1013.5
20260506061947 17 240 0.0 1.6 0.00 0.00 0.00 82 1013.5
20260506061445 17 239 0.0 3.2 0.00 0.00 0.00 82 1013.5
20260506060932 17 203 0.0 3.2 0.00 0.00 0.00 82 1013.5
20260506060426 17 179 0.0 3.2 0.00 0.00 0.00 82 1013.5
20260506051407 18 160 0.0 3.2 0.00 0.00 0.00 80 1013.8
20260506050911 18 163 0.0 3.2 0.00 0.00 0.00 80 1013.9
20260506050406 18 162 0.0 3.2 0.00 0.00 0.00 80 1014.0
20260506044905 18 236 0.0 3.2 0.00 0.00 0.00 80 1014.0
20260506044405 18 132 0.0 3.2 0.00 0.00 0.00 80 1014.0
20260506041856 18 164 0.0 4.8 0.00 0.00 0.00 79 1014.0
20260506040844 18 127 1.6 3.2 0.00 0.00 0.00 79 1013.9
20260506040342 18 200 0.0 3.2 0.00 0.00 0.00 79 1013.9
20260506035842 18 283 0.0 3.2 0.00 0.00 0.00 79 1013.9
20260506035342 18 257 1.6 3.2 0.00 0.00 0.00 79 1014.0
20260506034336 18 238 1.6 3.2 0.00 0.00 0.00 79 1013.9
20260506033837 19 346 1.6 3.2 0.00 0.00 0.00 78 1014.0
20260506033339 19 351 0.0 3.2 0.00 0.00 0.00 78 1014.0
20260506032833 19 305 0.0 1.6 0.00 0.00 0.00 78 1014.0
20260506032333 19 295 0.0 3.2 0.00 0.00 0.00 78 1013.9
20260506031831 19 274 1.6 3.2 0.00 0.00 0.00 78 1014.0
20260506031330 19 316 0.0 3.2 0.00 0.00 0.00 78 1014.0
20260506030832 19 32 0.0 1.6 0.00 0.00 0.00 78 1014.0
20260506030333 19 306 0.0 3.2 0.00 0.00 0.00 77 1014.0
20260506025832 19 290 0.0 3.2 0.00 0.00 0.00 77 1014.0
20260506025331 19 38 0.0 4.8 0.00 0.00 0.00 77 1014.0
20260506024833 19 69 0.0 4.8 0.00 0.00 0.00 77 1014.1
20260506024334 19 313 0.0 3.2 0.00 0.00 0.00 77 1014.0
20260506023832 19 227 0.0 3.2 0.00 0.00 0.00 77 1014.0
20260506023333 19 158 0.0 3.2 0.00 0.00 0.00 77 1014.2
20260506022833 19 158 0.0 3.2 0.00 0.00 0.00 77 1014.0
20260506022335 20 92 0.0 4.8 0.00 0.00 0.00 76 1014.0
20260506021829 20 109 0.0 4.8 0.00 0.00 0.00 76 1014.0
20260506021330 20 307 0.0 3.2 0.00 0.00 0.00 75 1014.2
20260506020829 20 156 0.0 3.2 0.00 0.00 0.00 76 1014.0
20260506020331 20 265 0.0 3.2 0.00 0.00 0.00 75 1014.0
20260506015330 20 42 0.0 0.0 0.00 0.00 0.00 75 1013.9
20260506014838 20 42 0.0 0.0 0.00 0.00 0.00 75 1013.9
20260506014330 20 42 0.0 0.0 0.00 0.00 0.00 75 1014.0
20260506013831 20 42 0.0 0.0 0.00 0.00 0.00 76 1013.9
20260506013338 20 49 0.0 0.0 0.00 0.00 0.00 76 1013.9
20260506012330 20 57 0.0 1.6 0.00 0.00 0.00 76 1013.8
20260506011831 20 54 0.0 1.6 0.00 0.00 0.00 76 1013.8
20260506011330 20 47 0.0 1.6 0.00 0.00 0.00 77 1013.7
20260506010832 20 53 0.0 0.0 0.00 0.00 0.00 77 1013.7
20260506010330 20 53 0.0 0.0 0.00 0.00 0.00 77 1013.7
20260506005337 20 41 0.0 0.0 0.00 0.00 0.00 77 1013.6
20260506004839 20 41 0.0 0.0 0.00 0.00 0.00 77 1013.4
20260506004335 20 41 0.0 0.0 0.00 0.00 0.00 77 1013.4
20260506003830 20 40 0.0 0.0 0.00 0.00 0.00 77 1013.4
20260506003332 20 40 0.0 0.0 0.00 0.00 0.00 77 1013.2
20260506002330 20 40 0.0 0.0 0.00 0.00 0.00 76 1013.2
20260506001834 20 40 0.0 1.6 0.00 0.00 0.00 76 1013.1
20260506000829 20 41 0.0 0.0 0.00 0.00 0.00 75 1013.1
20260506000332 20 41 0.0 0.0 0.00 0.00 0.00 75 1013.1
20260505235834 20 41 0.0 1.6 0.00 0.00 0.00 74 1013.1
20260505235331 20 41 1.6 1.6 0.00 0.00 0.00 74 1013.0
20260505234327 20 53 1.6 3.2 0.00 0.00 0.00 72 1013.0
20260505233828 20 76 0.0 3.2 0.00 0.00 0.00 72 1012.9
20260505233324 21 86 0.0 3.2 0.00 0.00 0.00 71 1012.9
20260505232826 21 89 0.0 3.2 0.00 0.00 0.00 70 1012.8
20260505232325 21 103 0.0 3.2 0.00 0.00 0.00 70 1013.0
20260505231825 21 104 0.0 0.0 0.00 0.00 0.00 69 1012.9
20260505230343 21 112 1.6 4.8 0.00 0.00 0.00 68 1012.9
20260505225320 21 355 1.6 3.2 0.00 0.00 0.00 68 1012.8
20260505224821 22 350 1.6 3.2 0.00 0.00 0.00 67 1012.7
20260505223819 22 345 1.6 3.2 0.00 0.00 0.00 66 1012.8
20260505222812 22 355 1.6 3.2 0.00 0.00 0.00 65 1012.8
20260505221816 22 355 1.6 3.2 0.00 0.00 0.00 65 1012.9
20260505220810 23 314 1.6 4.8 0.00 0.00 0.00 64 1012.8
20260505220316 23 278 1.6 4.8 0.00 0.00 0.00 64 1012.8
20260505215807 23 355 1.6 3.2 0.00 0.00 0.00 64 1012.6
20260505215305 23 298 1.6 3.2 0.00 0.00 0.00 63 1012.5
20260505214805 23 344 1.6 3.2 0.00 0.00 0.00 63 1012.6
20260505213759 23 350 1.6 3.2 0.00 0.00 0.00 63 1012.5
20260505212246 23 355 1.6 3.2 0.00 0.00 0.00 61 1012.4
20260505211744 24 355 1.6 3.2 0.00 0.00 0.00 61 1012.6
20260505211242 24 351 1.6 3.2 0.00 0.00 0.00 61 1012.7
20260505210244 24 0 1.6 4.8 0.00 0.00 0.00 60 1012.6
20260505205238 25 350 1.6 4.8 0.00 0.00 0.00 59 1012.4
20260505204739 25 355 1.6 4.8 0.00 0.00 0.00 60 1012.3
20260505204238 25 355 1.6 3.2 0.00 0.00 0.00 60 1012.3
20260505203745 25 351 0.0 3.2 0.00 0.00 0.00 61 1012.4
20260505203235 25 355 1.6 3.2 0.00 0.00 0.00 60 1012.4
20260505202739 25 355 1.6 3.2 0.00 0.00 0.00 60 1012.5
20260505202236 25 355 1.6 3.2 0.00 0.00 0.00 58 1012.5
20260505201742 25 355 1.6 3.2 0.00 0.00 0.00 58 1012.7
20260505201230 26 355 1.6 3.2 0.00 0.00 0.00 58 1012.7
20260505200730 26 351 1.6 3.2 0.00 0.00 0.00 57 1012.7
20260505200231 26 351 1.6 3.2 0.00 0.00 0.00 57 1012.8
20260505195732 26 355 1.6 4.8 0.00 0.00 0.00 57 1012.7
20260505195229 26 350 1.6 4.8 0.00 0.00 0.00 57 1012.8
20260505194216 26 39 1.6 4.8 0.00 0.00 0.00 56 1012.7
20260505193718 26 72 1.6 4.8 0.00 0.00 0.00 56 1012.8
20260505192712 28 0 1.6 6.4 0.00 0.00 0.00 49 1012.9
20260505192211 28 344 1.6 6.4 0.00 0.00 0.00 40 1012.9
20260505191205 28 314 1.6 3.2 0.00 0.00 0.00 41 1012.9
20260505190702 28 266 1.6 3.2 0.00 0.00 0.00 42 1013.0
20260505190203 28 305 1.6 4.8 0.00 0.00 0.00 40 1012.9
20260505185702 28 213 1.6 4.8 0.00 0.00 0.00 39 1013.0
20260505183709 27 111 1.6 6.4 0.00 0.00 0.00 48 1012.9
20260505183204 27 150 1.6 4.8 0.00 0.00 0.00 46 1013.0
20260505182728 27 331 0.0 3.2 0.00 0.00 0.00 47 1013.1
20260505182203 27 297 1.6 6.4 0.00 0.00 0.00 51 1013.0
20260505181209 27 166 1.6 6.4 0.00 0.00 0.00 49 1013.2
20260505180711 27 74 1.6 6.4 0.00 0.00 0.00 48 1013.2
20260505180206 27 252 0.0 4.8 0.00 0.00 0.00 51 1013.2
20260505175657 27 109 0.0 4.8 0.00 0.00 0.00 49 1013.3
20260505175150 27 198 1.6 9.7 0.00 0.00 0.00 52 1013.4
20260505174648 27 333 1.6 9.7 0.00 0.00 0.00 48 1013.4
20260505173636 27 127 1.6 9.7 0.00 0.00 0.00 49 1013.3
20260505173138 27 123 1.6 6.4 0.00 0.00 0.00 49 1013.4
20260505172640 26 119 1.6 6.4 0.00 0.00 0.00 49 1013.4
20260505172138 26 133 1.6 8.0 0.00 0.00 0.00 49 1013.4
20260505171137 26 185 1.6 6.4 0.00 0.00 0.00 48 1013.4
20260505170135 26 105 1.6 4.8 0.00 0.00 0.00 49 1013.4
20260505165634 26 225 0.0 4.8 0.00 0.00 0.00 51 1013.5
20260505165143 26 148 0.0 4.8 0.00 0.00 0.00 52 1013.6
20260505164135 26 153 0.0 6.4 0.00 0.00 0.00 49 1013.5
20260505163636 26 130 1.6 6.4 0.00 0.00 0.00 51 1013.5
20260505162633 25 180 0.0 4.8 0.00 0.00 0.00 51 1013.7
20260505162138 25 133 0.0 4.8 0.00 0.00 0.00 53 1013.8
20260505161633 25 146 0.0 4.8 0.00 0.00 0.00 53 1013.9
20260505161129 25 150 0.0 4.8 0.00 0.00 0.00 53 1013.8
20260505160631 25 181 1.6 3.2 0.00 0.00 0.00 53 1014.0
20260505160133 25 165 1.6 4.8 0.00 0.00 0.00 54 1014.0
20260505153144 24 219 0.0 6.4 0.00 0.00 0.00 57 1013.9
20260505151629 23 161 1.6 6.4 0.00 0.00 0.00 56 1014.0
20260505151128 23 99 1.6 6.4 0.00 0.00 0.00 56 1014.0
20260505150625 23 117 1.6 4.8 0.00 0.00 0.00 58 1014.1
20260505150124 23 182 1.6 4.8 0.00 0.00 0.00 58 1014.1
20260505140605 21 103 1.6 4.8 0.00 0.00 0.00 63 1014.3
20260505124604 16 117 0.0 4.8 0.00 0.00 0.00 85 1014.2
20260505124103 16 162 0.0 6.4 0.00 0.00 0.00 85 1014.1
20260505123101 16 163 1.6 6.4 0.00 0.00 0.00 84 1014.1
20260505122604 16 113 0.0 3.2 0.00 0.00 0.00 84 1014.1
20260505122104 17 90 0.0 6.4 0.00 0.00 0.00 82 1014.1
20260505120603 17 193 1.6 11.3 0.00 0.00 0.00 77 1014.1
20260505120100 17 43 0.0 11.3 0.00 0.00 0.00 77 1014.1
20260505115601 17 153 0.0 14.5 0.00 0.00 0.00 78 1014.1
20260505115104 17 151 0.0 14.5 0.00 0.00 0.00 77 1014.1
20260505114105 17 139 0.0 6.4 0.00 0.00 0.00 78 1014.1
20260505113605 16 155 0.0 6.4 0.00 0.00 0.00 78 1014.1
20260505113103 16 178 0.0 3.2 0.00 0.00 0.00 78 1014.1
20260505112555 16 144 0.0 4.8 0.00 0.00 0.00 79 1014.0
20260505112059 16 153 1.6 4.8 0.00 0.00 0.00 79 1014.0
20260505111547 16 153 0.0 6.4 0.00 0.00 0.00 79 1014.1
20260505111044 16 165 0.0 8.0 0.00 0.00 0.00 79 1014.0
20260505110538 16 162 0.0 8.0 0.00 0.00 0.00 79 1014.1
20260505101035 16 131 0.0 3.2 0.00 0.00 0.00 77 1013.6
20260505100533 16 123 0.0 6.4 0.00 0.00 0.00 77 1013.5